OH5XB Weather Reports


Display with metric or nautical units.
time (UTC)temp
F
wind
direction
speed
MPH
gust
MPH
rain 1hr
in
rain 24hr
in
rain mn
in
humidity
%
barometer
mb
20210921174926 39 0 1.0 1.0 0.00 0.00 0.00 82 1009.2
20210921174426 39 22 0.0 0.0 0.00 0.00 0.00 81 1009.2
20210921173926 39 22 0.0 0.0 0.00 0.00 0.00 81 1009.2
20210921173425 40 22 0.0 0.0 0.00 0.00 0.00 80 1009.1
20210921172925 40 22 0.0 0.0 0.00 0.00 0.00 80 1009.1
20210921172425 40 337 0.0 0.0 0.00 0.00 0.00 80 1009.2
20210921171924 40 45 0.0 0.0 0.00 0.00 0.00 80 1009.1
20210921171424 40 45 0.0 0.0 0.00 0.00 0.00 80 1009.1
20210921170924 40 67 0.0 0.0 0.00 0.00 0.00 80 1009.0
20210921170423 40 22 0.0 0.0 0.00 0.00 0.00 79 1009.0
20210921165923 40 45 0.0 0.0 0.00 0.00 0.00 79 1009.0
20210921165423 40 45 0.0 0.0 0.00 0.00 0.00 78 1009.0
20210921164923 41 45 0.0 0.0 0.00 0.00 0.00 78 1009.1
20210921164422 41 45 0.0 0.0 0.00 0.00 0.00 77 1009.1
20210921163922 41 45 0.0 0.0 0.00 0.00 0.00 77 1009.0
20210921163422 42 45 0.0 0.0 0.00 0.00 0.00 75 1009.0
20210921162921 42 67 0.0 0.0 0.00 0.00 0.00 75 1008.9
20210921162421 42 67 0.0 0.0 0.00 0.00 0.00 74 1008.8
20210921161921 43 45 0.0 0.0 0.00 0.00 0.00 73 1008.8
20210921161421 43 67 0.0 0.0 0.00 0.00 0.00 72 1009.1
20210921160920 44 67 0.0 2.0 0.00 0.00 0.00 72 1009.0
20210921160420 44 67 2.0 2.0 0.00 0.00 0.00 71 1008.9
20210921155920 44 45 0.0 1.0 0.00 0.00 0.00 71 1008.9
20210921155419 45 22 1.0 1.0 0.00 0.00 0.00 70 1008.8
20210921154919 45 67 0.0 0.0 0.00 0.00 0.00 70 1008.7
20210921154419 46 22 0.0 2.0 0.00 0.00 0.00 70 1008.7
20210921153919 46 90 2.0 2.0 0.00 0.00 0.00 69 1008.9
20210921153418 46 67 2.0 4.0 0.00 0.00 0.00 69 1008.7
20210921152918 46 135 4.0 4.0 0.00 0.00 0.00 69 1008.9
20210921152418 46 90 3.0 3.0 0.00 0.00 0.00 69 1008.9
20210921151917 46 337 0.0 0.0 0.00 0.00 0.00 69 1008.9
20210921151417 46 112 0.0 3.0 0.00 0.00 0.00 69 1008.7
20210921150917 46 112 3.0 4.0 0.00 0.00 0.00 68 1008.7
20210921150416 46 90 4.0 4.0 0.00 0.00 0.00 68 1008.8
20210921145916 46 90 0.0 2.0 0.00 0.00 0.00 68 1008.7
20210921145416 47 45 2.0 2.0 0.00 0.00 0.00 68 1008.7
20210921144915 47 67 0.0 2.0 0.00 0.00 0.00 68 1008.7
20210921144415 46 0 2.0 2.0 0.00 0.00 0.00 67 1008.7
20210921143915 47 45 1.0 1.0 0.00 0.00 0.00 67 1008.7
20210921143415 47 67 0.0 4.0 0.00 0.00 0.00 66 1008.9
20210921142914 47 22 4.0 4.0 0.00 0.00 0.00 66 1008.9
20210921142414 47 45 0.0 1.0 0.00 0.00 0.00 66 1008.8
20210921141914 47 135 0.0 0.0 0.00 0.00 0.00 66 1008.8
20210921141414 47 135 0.0 0.0 0.00 0.00 0.00 66 1008.8
20210921140913 47 45 0.0 4.0 0.00 0.00 0.00 65 1008.7
20210921140413 47 112 4.0 8.0 0.00 0.00 0.00 65 1008.7
20210921135913 47 67 8.0 8.0 0.00 0.00 0.00 65 1008.7
20210921135412 48 67 3.0 8.0 0.00 0.00 0.00 64 1008.7
20210921134912 48 112 4.0 4.0 0.00 0.00 0.00 64 1008.7
20210921134412 48 112 4.0 11.0 0.00 0.00 0.00 64 1008.7
20210921133911 48 90 11.0 11.0 0.00 0.00 0.00 64 1008.7
20210921133411 48 45 2.0 2.0 0.00 0.00 0.00 64 1008.8
20210921132911 49 0 1.0 6.0 0.00 0.00 0.00 64 1008.7
20210921132411 49 45 5.0 8.0 0.00 0.00 0.00 63 1008.6
20210921131910 49 90 8.0 8.0 0.00 0.00 0.00 63 1008.7
20210921131410 49 90 5.0 7.0 0.00 0.00 0.00 62 1008.7
20210921130910 49 90 0.0 3.0 0.00 0.00 0.00 62 1008.8
20210921130409 50 112 2.0 4.0 0.00 0.00 0.00 62 1008.8
20210921125909 50 112 2.0 3.0 0.00 0.00 0.00 62 1008.7
20210921125409 50 112 3.0 3.0 0.00 0.00 0.00 62 1008.7
20210921124908 50 67 2.0 10.0 0.00 0.00 0.00 62 1008.7
20210921124408 50 135 2.0 5.0 0.00 0.00 0.00 63 1008.8
20210921123908 50 90 5.0 5.0 0.00 0.00 0.00 63 1008.8
20210921123408 50 67 2.0 3.0 0.00 0.00 0.00 62 1008.7
20210921122907 50 90 2.0 5.0 0.00 0.00 0.00 63 1008.7
20210921122407 50 157 5.0 12.0 0.00 0.00 0.00 63 1008.7
20210921121907 50 112 12.0 12.0 0.00 0.00 0.00 62 1008.7
20210921121406 50 45 0.0 5.0 0.00 0.00 0.00 62 1008.8
20210921120906 51 22 5.0 6.0 0.00 0.00 0.00 62 1008.8
20210921120406 51 45 2.0 3.0 0.00 0.00 0.00 61 1008.8
20210921115906 51 45 3.0 10.0 0.00 0.00 0.00 61 1008.9
20210921115405 51 112 0.0 2.0 0.00 0.00 0.00 62 1008.8
20210921114905 51 45 2.0 8.0 0.00 0.00 0.00 62 1008.9
20210921114405 52 22 8.0 8.0 0.00 0.00 0.00 62 1008.7
20210921113904 52 45 8.0 8.0 0.00 0.00 0.00 62 1008.8
20210921113404 52 67 8.0 8.0 0.00 0.00 0.00 61 1008.7
20210921112904 52 67 8.0 8.0 0.00 0.00 0.00 62 1008.8
20210921112403 52 45 6.0 6.0 0.00 0.00 0.00 63 1008.9
20210921111903 52 202 0.0 8.0 0.00 0.00 0.00 62 1009.0
20210921111403 52 90 8.0 8.0 0.00 0.00 0.00 62 1009.1
20210921110903 52 90 3.0 8.0 0.00 0.00 0.00 63 1009.0
20210921110402 52 112 8.0 9.0 0.00 0.00 0.00 63 1009.3
20210921105902 51 90 9.0 9.0 0.00 0.00 0.00 64 1009.2
20210921105402 51 22 0.0 4.0 0.00 0.00 0.00 64 1009.1
20210921104901 51 45 4.0 6.0 0.00 0.00 0.00 64 1009.2
20210921104401 51 22 6.0 9.0 0.00 0.00 0.00 64 1009.2
20210921103901 51 45 9.0 9.0 0.00 0.00 0.00 64 1009.2
20210921103401 51 112 5.0 5.0 0.00 0.00 0.00 65 1009.2
20210921102900 52 135 0.0 0.0 0.00 0.00 0.00 65 1009.3
20210921102400 52 45 0.0 4.0 0.00 0.00 0.00 66 1009.3
20210921101900 52 22 2.0 6.0 0.00 0.00 0.00 67 1009.3
20210921101359 52 135 4.0 5.0 0.00 0.00 0.00 67 1009.3
20210921100859 51 135 2.0 4.0 0.00 0.00 0.00 68 1009.2
20210921100359 51 157 4.0 8.0 0.00 0.00 0.00 68 1009.3
20210921095859 51 45 8.0 8.0 0.00 0.00 0.00 70 1009.2
20210921095358 50 315 0.0 1.0 0.00 0.00 0.00 72 1009.3
20210921094858 49 135 1.0 6.0 0.00 0.00 0.00 72 1009.4
20210921094358 49 112 6.0 6.0 0.00 0.00 0.00 73 1009.4
20210921093857 48 112 2.0 2.0 0.00 0.00 0.00 75 1009.4
20210921093357 48 22 2.0 6.0 0.00 0.00 0.00 75 1009.5
20210921092857 48 90 6.0 6.0 0.00 0.00 0.00 75 1009.5
20210921092356 47 67 4.0 8.0 0.00 0.00 0.00 76 1009.5
20210921091856 47 90 8.0 9.0 0.00 0.00 0.00 77 1009.5
20210921091356 47 45 0.0 2.0 0.00 0.00 0.00 77 1009.6
20210921090856 46 67 0.0 5.0 0.00 0.00 0.00 77 1009.6
20210921090355 46 112 5.0 5.0 0.00 0.00 0.00 77 1009.6
20210921085855 46 112 1.0 3.0 0.00 0.00 0.00 77 1009.7
20210921085355 46 22 3.0 9.0 0.00 0.00 0.00 77 1009.7
20210921084854 46 67 4.0 4.0 0.00 0.00 0.00 77 1009.7
20210921084354 46 67 2.0 5.0 0.00 0.00 0.00 77 1009.6
20210921083854 46 0 2.0 4.0 0.00 0.00 0.00 77 1009.5
20210921083354 46 67 4.0 6.0 0.00 0.00 0.00 77 1009.6
20210921082853 46 67 6.0 6.0 0.00 0.00 0.00 78 1009.5
20210921082353 46 112 1.0 3.0 0.00 0.00 0.00 78 1009.6
20210921081853 46 45 3.0 3.0 0.00 0.00 0.00 78 1009.7
20210921081352 46 90 3.0 8.0 0.00 0.00 0.00 79 1009.7
20210921080852 46 90 2.0 2.0 0.00 0.00 0.00 80 1009.8
20210921080352 45 90 2.0 9.0 0.00 0.00 0.00 80 1009.8
20210921075852 45 112 9.0 9.0 0.00 0.00 0.00 81 1009.8
20210921075351 45 112 1.0 3.0 0.00 0.00 0.00 81 1009.8
20210921074851 45 315 2.0 2.0 0.00 0.00 0.00 82 1009.8
20210921074351 44 22 0.0 3.0 0.00 0.00 0.00 82 1009.9
20210921073850 44 45 0.0 2.0 0.00 0.00 0.00 82 1009.9
20210921073350 44 22 2.0 6.0 0.00 0.00 0.00 82 1010.1
20210921072850 43 45 6.0 6.0 0.00 0.00 0.00 83 1009.8
20210921072349 43 112 2.0 4.0 0.00 0.00 0.00 83 1010.1
20210921071849 42 0 4.0 4.0 0.00 0.00 0.00 83 1010.0
20210921071349 42 112 0.0 2.0 0.00 0.00 0.00 84 1009.9
20210921070849 42 112 2.0 6.0 0.00 0.00 0.00 84 1010.0
20210921070348 42 22 6.0 6.0 0.00 0.00 0.00 84 1009.9
20210921065848 42 22 0.0 10.0 0.00 0.00 0.00 84 1010.1
20210921065348 42 22 5.0 7.0 0.00 0.00 0.00 84 1010.0
20210921064847 41 45 7.0 7.0 0.00 0.00 0.00 84 1010.1
20210921064347 41 45 0.0 7.0 0.00 0.00 0.00 85 1010.2
20210921063847 41 45 2.0 2.0 0.00 0.00 0.00 85 1010.1
20210921063346 41 45 2.0 3.0 0.00 0.00 0.00 85 1010.1
20210921062846 41 0 3.0 7.0 0.00 0.00 0.00 85 1010.1
20210921062346 41 22 7.0 7.0 0.00 0.00 0.00 85 1010.1
20210921061846 41 45 0.0 0.0 0.00 0.00 0.00 85 1010.3
20210921061345 41 45 0.0 3.0 0.00 0.00 0.00 86 1010.4
20210921060845 41 337 0.0 0.0 0.00 0.00 0.00 86 1010.2
20210921060345 41 202 0.0 2.0 0.00 0.00 0.00 86 1010.3
20210921055844 41 22 2.0 2.0 0.00 0.00 0.00 86 1010.2
20210921055344 41 135 1.0 4.0 0.00 0.00 0.00 86 1010.2
20210921054844 40 337 4.0 4.0 0.00 0.00 0.00 86 1010.2
20210921054344 40 45 2.0 6.0 0.00 0.00 0.00 86 1010.4
20210921053843 40 45 6.0 6.0 0.00 0.00 0.00 87 1010.3
20210921053343 40 45 6.0 6.0 0.00 0.00 0.00 87 1010.4
20210921052843 40 22 0.0 8.0 0.00 0.00 0.00 87 1010.4
20210921052342 40 45 0.0 3.0 0.00 0.00 0.00 87 1010.5
20210921051842 40 67 0.0 5.0 0.00 0.00 0.00 87 1010.6
20210921051342 40 45 5.0 5.0 0.00 0.00 0.00 87 1010.5
20210921050842 40 0 3.0 3.0 0.00 0.00 0.00 87 1010.4
20210921050341 40 0 0.0 6.0 0.00 0.00 0.00 87 1010.7
20210921045841 40 22 0.0 6.0 0.00 0.00 0.00 87 1010.7
20210921045341 39 45 3.0 4.0 0.00 0.00 0.00 87 1010.6
20210921044840 39 0 0.0 0.0 0.00 0.00 0.00 87 1010.5
20210921044340 39 90 0.0 6.0 0.00 0.00 0.00 88 1010.6
20210921043840 39 0 2.0 2.0 0.00 0.00 0.00 88 1010.6
20210921043339 39 315 0.0 2.0 0.00 0.00 0.00 88 1010.6
20210921042839 39 67 2.0 2.0 0.00 0.00 0.00 88 1010.8
20210921042339 39 337 0.0 3.0 0.00 0.00 0.00 88 1010.7
20210921041839 39 22 3.0 3.0 0.00 0.00 0.00 88 1010.5
20210921041338 39 22 2.0 2.0 0.00 0.00 0.00 88 1010.5
20210921040838 39 67 2.0 2.0 0.00 0.00 0.00 88 1010.6
20210921040338 39 135 1.0 5.0 0.00 0.00 0.00 88 1010.7
20210921035837 39 45 1.0 1.0 0.00 0.00 0.00 88 1010.6
20210921035337 39 45 1.0 1.0 0.00 0.00 0.00 88 1010.6
20210921034837 39 22 0.0 2.0 0.00 0.00 0.00 88 1010.6
20210921034337 39 0 0.0 2.0 0.00 0.00 0.00 88 1010.7
20210921033836 39 0 2.0 2.0 0.00 0.00 0.00 88 1010.6
20210921033336 39 45 2.0 2.0 0.00 0.00 0.00 88 1010.7
20210921032836 39 22 2.0 2.0 0.00 0.00 0.00 88 1010.8
20210921032335 39 22 2.0 3.0 0.00 0.00 0.00 88 1010.8
20210921031835 39 45 1.0 1.0 0.00 0.00 0.00 88 1010.9
20210921031335 39 45 1.0 3.0 0.00 0.00 0.00 88 1010.8
20210921030834 39 90 3.0 3.0 0.00 0.00 0.00 88 1010.9
20210921030334 39 45 0.0 1.0 0.00 0.00 0.00 88 1011.0
20210921025834 39 112 1.0 2.0 0.00 0.00 0.00 88 1011.0
20210921025334 39 112 2.0 2.0 0.00 0.00 0.00 88 1011.2
20210921024833 39 0 2.0 2.0 0.00 0.00 0.00 89 1011.1
20210921024333 39 45 0.0 1.0 0.00 0.00 0.00 89 1011.1
20210921023833 39 45 1.0 4.0 0.00 0.00 0.00 89 1011.1
20210921023332 39 0 4.0 4.0 0.00 0.00 0.00 89 1011.2
20210921022833 39 45 1.0 1.0 0.00 0.00 0.00 89 1011.4
20210921022332 39 67 0.0 2.0 0.00 0.00 0.00 88 1011.2
20210921021832 39 22 2.0 7.0 0.00 0.00 0.00 88 1011.4
20210921021331 39 22 7.0 7.0 0.00 0.00 0.00 88 1011.4
20210921020831 39 112 1.0 4.0 0.00 0.00 0.00 88 1011.5
20210921020331 38 67 4.0 5.0 0.00 0.00 0.00 88 1011.4
20210921015830 38 157 0.0 2.0 0.00 0.00 0.00 88 1011.4
20210921015330 38 0 2.0 3.0 0.00 0.00 0.00 88 1011.5
20210921014830 38 135 0.0 1.0 0.00 0.00 0.00 88 1011.5
20210921014330 38 112 1.0 3.0 0.00 0.00 0.00 88 1011.5
20210921013829 38 0 3.0 3.0 0.00 0.00 0.00 88 1011.5
20210921013329 38 45 3.0 3.0 0.00 0.00 0.00 88 1011.5
20210921012829 38 67 2.0 2.0 0.00 0.00 0.00 88 1011.6
20210921012328 38 22 0.0 0.0 0.00 0.00 0.00 88 1011.6
20210921011828 38 0 0.0 3.0 0.00 0.00 0.00 88 1011.8
20210921011328 38 67 3.0 3.0 0.00 0.00 0.00 88 1011.5
20210921010827 38 45 2.0 2.0 0.00 0.00 0.00 88 1011.7
20210921010327 38 45 2.0 2.0 0.00 0.00 0.00 88 1011.8
20210921005827 38 22 1.0 1.0 0.00 0.00 0.00 88 1011.8
20210921005327 39 45 1.0 5.0 0.00 0.00 0.00 88 1011.8
20210921004826 39 67 1.0 1.0 0.00 0.00 0.00 88 1011.8
20210921004326 39 45 1.0 2.0 0.00 0.00 0.00 88 1011.7
20210921003826 39 22 2.0 2.0 0.00 0.00 0.00 88 1011.9
20210921003325 39 337 0.0 2.0 0.00 0.00 0.00 88 1011.9
20210921002825 38 22 1.0 4.0 0.00 0.00 0.00 88 1012.0
20210921002325 39 22 4.0 4.0 0.00 0.00 0.00 88 1011.9
20210921001825 39 22 1.0 4.0 0.00 0.00 0.00 88 1011.9
20210921001324 39 45 0.0 4.0 0.00 0.00 0.00 88 1011.9
20210921000824 39 22 4.0 6.0 0.00 0.00 0.00 87 1012.0
20210921000325 39 22 6.0 6.0 0.00 0.00 0.00 87 1012.2
20210920235823 39 22 0.0 0.0 0.00 0.00 0.00 87 1012.2
20210920235323 39 0 0.0 1.0 0.00 0.00 0.00 87 1012.2
20210920234823 39 22 1.0 1.0 0.00 0.00 0.00 87 1012.1
20210920234322 39 90 0.0 5.0 0.00 0.00 0.00 87 1012.2
20210920233822 39 0 5.0 5.0 0.00 0.00 0.00 87 1012.3
20210920233322 39 67 0.0 0.0 0.00 0.00 0.00 87 1012.3
20210920232822 39 0 0.0 2.0 0.00 0.00 0.00 87 1012.3
20210920232321 39 45 1.0 4.0 0.00 0.00 0.00 87 1012.3
20210920231821 38 0 2.0 2.0 0.00 0.00 0.00 87 1012.5
20210920231321 38 22 1.0 2.0 0.00 0.00 0.00 87 1012.3
20210920230820 38 22 0.0 2.0 0.00 0.00 0.00 87 1012.5
20210920230320 38 0 2.0 3.0 0.00 0.00 0.00 87 1012.6
20210920225820 38 67 2.0 2.0 0.00 0.00 0.00 87 1012.5
20210920225320 38 0 0.0 2.0 0.00 0.00 0.00 87 1012.5
20210920224819 38 0 0.0 2.0 0.00 0.00 0.00 87 1012.7
20210920223819 38 90 2.0 3.0 0.00 0.00 0.00 86 1012.7
20210920223318 38 45 3.0 3.0 0.00 0.00 0.00 86 1012.7
20210920222818 38 22 3.0 3.0 0.00 0.00 0.00 86 1012.7
20210920222318 38 22 0.0 0.0 0.00 0.00 0.00 86 1012.7
20210920221817 39 22 0.0 3.0 0.00 0.00 0.00 86 1013.0
20210920221317 38 0 3.0 3.0 0.00 0.00 0.00 86 1013.0
20210920220817 38 45 3.0 3.0 0.00 0.00 0.00 85 1013.0
20210920220317 38 0 2.0 6.0 0.00 0.00 0.00 85 1013.1
20210920215816 38 45 2.0 3.0 0.00 0.00 0.00 85 1013.0
20210920215316 38 45 1.0 1.0 0.00 0.00 0.00 85 1013.0
20210920214816 38 337 0.0 6.0 0.00 0.00 0.00 85 1013.2
20210920214315 38 45 2.0 2.0 0.00 0.00 0.00 84 1013.1
20210920213815 38 45 0.0 2.0 0.00 0.00 0.00 84 1013.1
20210920213315 39 67 1.0 1.0 0.00 0.00 0.00 84 1013.2
20210920212815 39 67 0.0 0.0 0.00 0.00 0.00 83 1013.1
20210920212314 39 90 0.0 0.0 0.00 0.00 0.00 83 1013.3
20210920211814 39 0 0.0 1.0 0.00 0.00 0.00 83 1013.2
20210920211314 39 90 0.0 3.0 0.00 0.00 0.00 83 1013.4
20210920210813 40 22 0.0 2.0 0.00 0.00 0.00 83 1013.1
20210920205813 40 67 1.0 1.0 0.00 0.00 0.00 82 1013.3
20210920205312 40 22 0.0 2.0 0.00 0.00 0.00 82 1013.3
20210920204812 40 0 1.0 5.0 0.00 0.00 0.00 82 1013.3
20210920204312 40 22 4.0 4.0 0.00 0.00 0.00 82 1013.4
20210920203812 41 90 3.0 5.0 0.00 0.00 0.00 82 1013.4
20210920203311 41 0 0.0 3.0 0.00 0.00 0.00 81 1013.5
20210920202811 41 90 2.0 4.0 0.00 0.00 0.00 81 1013.5
20210920202311 41 0 4.0 4.0 0.00 0.00 0.00 81 1013.5
20210920201810 41 0 4.0 6.0 0.00 0.00 0.00 81 1013.5
20210920201310 41 22 6.0 6.0 0.00 0.00 0.00 81 1013.5
20210920200810 41 112 0.0 2.0 0.00 0.00 0.00 81 1013.5
20210920200310 41 45 1.0 2.0 0.00 0.00 0.00 81 1013.4
20210920195809 41 22 2.0 2.0 0.00 0.00 0.00 81 1013.4
20210920195309 41 45 1.0 2.0 0.00 0.00 0.00 80 1013.5
20210920194809 41 90 2.0 4.0 0.00 0.00 0.00 80 1013.5
20210920194309 41 45 2.0 2.0 0.00 0.00 0.00 80 1013.5
20210920193808 41 45 1.0 6.0 0.00 0.00 0.00 80 1013.5
20210920193308 41 22 6.0 6.0 0.00 0.00 0.00 80 1013.6
20210920192808 41 67 1.0 1.0 0.00 0.00 0.00 80 1013.7
20210920192307 41 0 0.0 8.0 0.00 0.00 0.00 80 1013.7
20210920191807 41 67 1.0 4.0 0.00 0.00 0.00 79 1013.8
20210920191307 41 45 4.0 4.0 0.00 0.00 0.00 79 1013.8
20210920190807 41 67 0.0 4.0 0.00 0.00 0.00 79 1013.7
20210920190306 41 22 1.0 4.0 0.00 0.00 0.00 79 1013.7
20210920185806 41 45 4.0 7.0 0.00 0.00 0.00 79 1013.8
20210920185306 41 67 2.0 7.0 0.00 0.00 0.00 79 1013.8
20210920184805 41 90 5.0 5.0 0.00 0.00 0.00 79 1014.0
20210920184305 41 135 0.0 0.0 0.00 0.00 0.00 79 1013.8
20210920183805 41 90 0.0 3.0 0.00 0.00 0.00 79 1013.9
20210920183304 41 22 0.0 6.0 0.00 0.00 0.00 78 1014.0
20210920182804 41 22 6.0 6.0 0.00 0.00 0.00 78 1013.9
20210920182306 41 22 6.0 6.0 0.00 0.00 0.00 78 1013.9
20210920181804 41 90 0.0 2.0 0.00 0.00 0.00 78 1014.0
20210920181303 41 90 1.0 8.0 0.00 0.00 0.00 78 1013.9
20210920180803 41 22 8.0 8.0 0.00 0.00 0.00 79 1014.0
20210920180303 41 45 3.0 3.0 0.00 0.00 0.00 79 1014.0
20210920175802 41 45 3.0 3.0 0.00 0.00 0.00 79 1014.0